GEFSCGP_con_prob3kmehi_216.txt.gz
EHI
0 0 0 0 0 0 0 0 0 0 0 0 0 1 2 1 4 13 25 37 45 52 58 62 63 64 64 63 61 55 48 42 33 24 19 15 13 13 16 24 29 27 21 19
0 0 0 0 0 0 0 0 0 0 0 0 0 2 4 4 4 10 23 34 46 57 67 72 71 69 71 71 67 60 53 46 37 30 24 18 15 15 20 29 36 33 28 26
0 0 0 0 0 0 0 0 0 0 0 0 0 2 5 6 5 8 17 29 43 59 73 78 78 76 76 76 72 64 58 53 44 36 29 23 21 21 27 37 40 37 33 33
0 0 0 0 0 0 0 0 0 0 0 0 0 1 3 6 6 9 16 27 39 54 70 78 80 78 76 74 70 66 64 60 53 43 34 30 29 28 32 39 41 38 35 34
0 0 0 0 0 0 0 0 0 0 0 0 0 0 1 3 6 10 20 30 38 49 65 75 80 80 75 70 68 69 70 68 61 52 43 37 33 31 34 41 45 42 39 36
0 0 0 0 0 0 0 0 0 0 0 0 0 1 2 3 5 11 19 29 37 46 58 70 78 81 77 71 67 69 72 72 67 60 51 43 38 36 39 44 46 43 41 39
0 0 0 0 0 0 0 0 0 0 0 0 0 2 4 6 7 10 14 21 31 41 52 63 72 79 78 72 68 70 73 73 70 66 59 52 48 45 44 44 43 42 40 38
0 0 0 0 0 0 0 0 0 0 0 0 0 3 7 8 9 10 11 14 21 34 46 55 64 72 73 71 71 74 76 74 72 69 65 60 55 51 46 44 42 41 38 36
0 0 0 0 0 0 0 0 0 0 0 0 1 5 8 9 10 11 10 10 14 25 38 49 57 64 66 67 70 75 78 77 74 71 68 64 61 55 48 46 44 41 37 34
0 0 0 0 0 0 0 0 0 0 0 0 1 4 6 10 12 13 12 11 14 22 33 45 56 60 63 65 69 75 77 77 74 71 67 63 61 56 49 47 47 44 40 37
0 0 0 0 0 0 0 0 0 0 0 0 0 1 5 10 14 17 18 18 20 24 31 44 55 61 65 69 73 75 75 73 72 69 65 60 57 53 49 48 49 47 43 41
0 0 0 0 0 0 0 0 0 0 0 0 0 1 4 9 14 20 25 27 29 31 34 43 55 63 67 70 74 73 70 68 67 65 62 58 55 53 51 50 50 47 43 40
0 0 0 0 0 0 0 0 0 0 0 0 0 1 5 10 17 25 31 36 39 40 41 48 58 65 66 68 70 69 66 63 61 60 59 57 56 54 52 50 47 42 39 37
0 0 0 0 0 0 0 0 0 0 0 0 0 2 6 14 23 29 36 42 44 45 50 57 63 66 66 65 65 64 61 59 57 56 55 54 53 50 48 45 40 35 34 33
0 0 0 0 0 0 0 0 0 0 0 0 0 2 8 19 27 31 38 44 46 47 54 63 66 66 65 63 61 60 58 57 57 55 52 51 49 45 41 37 33 31 30 30
0 0 0 0 0 0 0 0 0 0 0 0 1 5 13 23 29 33 40 47 48 48 52 62 67 67 65 62 59 58 57 57 57 53 48 46 43 40 35 32 31 31 30 28
1 1 0 0 0 0 0 0 0 0 0 0 2 9 18 25 30 34 41 48 50 47 49 58 66 67 66 63 61 58 56 57 56 50 44 40 39 37 34 32 32 31 29 25
1 2 1 0 0 0 0 0 0 0 0 1 4 12 20 26 30 33 39 47 51 50 52 57 62 66 66 65 63 60 56 55 52 46 40 37 37 36 34 32 31 29 25 22
1 2 1 0 0 0 0 0 0 0 1 3 7 14 20 24 28 32 40 50 55 56 57 58 59 63 68 68 65 61 56 52 48 43 38 36 35 35 32 30 28 24 21 19
0 0 0 0 0 0 1 2 1 1 4 7 12 16 20 22 26 36 47 56 62 63 62 60 60 64 70 70 67 63 56 50 45 41 38 36 35 32 30 26 22 18 17 17
0 0 0 0 0 1 2 3 6 10 15 17 18 20 21 23 30 43 54 60 66 66 64 63 64 68 71 71 68 63 55 49 45 42 39 37 33 28 24 20 16 14 14 16
0 0 0 1 3 7 11 15 22 29 31 27 25 24 24 27 35 47 56 61 65 65 65 66 68 69 69 69 67 62 55 50 46 43 39 36 31 25 18 15 13 13 14 14
1 1 2 3 8 14 22 31 40 42 38 33 30 28 26 29 35 46 56 62 64 63 62 63 65 66 67 68 67 62 54 48 45 42 38 34 30 25 19 15 13 13 13 12
2 2 5 8 12 16 23 32 38 37 33 31 30 29 28 30 37 47 57 63 63 60 58 59 61 63 66 68 66 60 52 46 43 40 35 31 26 22 18 14 12 11 10 10
3 4 8 14 17 16 18 22 24 23 23 23 24 27 28 31 38 48 56 60 59 56 54 56 59 61 63 64 63 58 52 47 43 38 32 26 19 14 13 11 9 8 7 7
4 6 9 16 21 18 17 16 14 15 16 16 19 25 26 29 38 48 54 56 55 53 53 57 58 59 61 62 60 57 52 48 43 36 29 22 14 9 8 8 7 5 4 4

GEFSCGP_con_prob3kmehi_222.txt.gz
EHI
0 0 0 0 0 0 0 0 0 0 0 0 1 3 5 6 7 9 11 14 21 31 36 37 38 38 35 32 31 29 23 14 6 4 4 3 3 2 3 4 5 5 4 3
0 0 0 0 0 0 0 0 0 0 0 1 2 4 6 8 9 11 14 16 23 33 40 43 47 48 44 41 39 35 28 18 9 6 5 4 2 1 2 3 3 3 3 3
0 0 0 0 0 0 0 0 0 0 0 1 2 3 5 8 12 14 18 22 27 36 45 51 55 56 53 49 46 41 35 26 15 9 7 6 4 4 4 4 2 2 3 4
0 0 0 0 0 0 0 0 0 0 0 1 1 1 3 7 12 17 21 25 29 36 47 55 58 56 54 51 46 42 38 33 23 15 12 10 8 8 8 6 2 2 3 4
0 0 0 0 0 0 0 0 0 0 0 0 0 0 1 5 11 17 22 26 30 36 46 56 58 53 50 48 46 42 40 36 30 25 20 15 12 10 9 7 5 3 2 3
0 0 0 0 0 0 0 0 0 0 0 0 0 0 1 3 10 16 21 26 30 36 44 52 54 52 50 49 47 44 42 40 37 31 25 20 15 11 10 9 8 6 4 3
0 0 0 0 0 0 0 0 0 0 0 0 0 0 1 4 11 17 20 24 30 36 42 48 53 54 53 53 51 47 44 43 40 36 30 24 19 16 13 11 12 11 8 6
0 0 0 0 0 0 0 0 0 0 0 0 0 1 3 8 14 19 20 21 27 35 41 47 53 56 56 55 53 49 45 43 43 42 37 30 25 22 18 14 14 14 11 9
0 0 0 0 0 0 0 0 0 0 0 0 0 1 6 11 16 20 21 20 24 32 39 43 48 52 54 54 52 49 45 42 44 44 41 36 31 28 23 18 15 14 13 11
0 0 0 0 0 0 0 0 0 0 0 0 0 1 4 10 16 22 23 21 22 28 35 38 42 49 53 54 53 51 47 44 44 43 41 38 34 30 25 20 16 13 13 12
0 0 0 0 0 0 0 0 0 0 0 0 0 0 3 8 14 21 25 23 21 25 31 36 42 50 54 54 54 54 50 46 43 41 40 38 34 31 26 20 15 12 11 10
0 0 0 0 0 0 0 0 0 0 0 0 0 0 3 10 17 23 27 26 24 25 30 36 43 49 52 52 51 51 48 44 41 39 40 38 36 33 28 21 15 13 10 8
0 0 0 0 0 0 0 0 0 0 0 0 0 1 7 17 25 30 33 32 30 29 31 36 42 47 49 49 48 47 44 42 39 37 38 37 36 34 28 22 17 13 11 9
0 0 0 0 0 0 0 0 0 0 0 0 0 2 11 24 33 36 38 39 39 37 37 39 42 45 47 48 48 45 43 39 37 36 36 35 33 31 27 23 18 15 13 12
0 0 0 0 0 0 0 0 0 0 0 0 0 2 12 24 32 36 40 43 45 44 42 42 42 44 45 46 46 45 42 37 34 33 34 32 28 26 25 23 20 18 15 13
0 0 0 0 0 0 0 0 0 0 0 0 0 3 10 20 29 34 39 42 45 46 44 42 41 42 44 44 43 42 39 33 31 32 32 28 25 23 23 23 21 19 16 13
0 0 0 0 0 0 0 0 0 1 1 1 2 5 12 21 29 34 37 38 40 43 42 40 39 40 42 42 40 37 34 30 30 31 30 27 25 24 23 23 21 19 16 14
0 0 0 0 0 0 0 0 2 4 4 4 6 12 19 25 30 31 31 32 35 39 40 39 38 38 40 40 38 34 30 28 29 29 29 27 26 24 23 22 20 18 16 14
0 0 0 0 0 0 0 1 3 6 9 11 15 22 27 30 30 28 27 29 33 37 39 39 39 40 41 40 37 33 28 27 28 27 27 26 25 23 22 19 17 15 13 12
0 0 0 0 0 0 1 2 4 7 11 15 20 27 31 32 30 28 29 32 35 38 41 41 41 43 43 40 38 33 29 27 27 26 26 25 24 22 19 16 12 10 10 10
0 0 0 0 0 0 1 2 3 6 10 15 21 27 30 30 29 33 38 40 40 43 45 46 45 44 42 40 37 34 29 27 26 25 25 24 21 19 15 11 8 7 7 8
0 0 0 0 0 0 0 1 3 7 12 17 23 27 30 31 34 41 46 46 46 49 52 54 51 45 42 39 35 32 28 25 24 24 23 21 18 15 11 8 6 6 6 6
0 0 0 1 1 2 3 4 6 11 17 23 28 29 32 37 41 46 48 46 46 50 54 56 53 46 39 35 31 27 25 25 24 23 21 18 15 11 7 5 5 5 6 5
0 0 1 3 4 6 8 8 11 15 21 27 31 32 34 38 41 44 44 41 42 44 46 49 48 44 37 31 27 24 24 25 25 23 18 15 11 7 4 4 4 4 5 6
0 0 2 5 7 8 10 9 11 15 21 26 30 33 34 36 38 39 39 38 38 37 38 41 43 41 36 29 25 24 25 26 26 22 16 12 8 5 3 3 3 3 4 6
0 0 2 4 6 7 8 8 8 13 18 21 26 32 35 36 38 38 37 37 36 35 35 38 40 40 35 29 26 25 26 27 26 21 15 10 7 4 3 3 2 2 3 5

GEFSCGP_con_prob3kmehi_228.txt.gz
EHI
0 0 0 0 0 0 0 0 0 0 0 1 1 2 3 3 2 1 1 4 9 10 9 10 10 8 4 2 2 3 3 2 2 2 1 0 0 0 1 1 1 0 1 1
0 0 0 0 0 0 0 0 0 0 0 1 2 2 3 4 3 2 3 6 10 11 12 12 12 11 8 5 3 3 3 3 3 3 2 1 0 0 0 0 0 0 0 1
0 0 0 0 0 0 0 0 0 0 0 1 1 1 2 3 4 4 5 8 10 12 13 15 15 14 12 7 4 3 3 3 3 3 4 3 2 0 0 0 0 0 0 1
0 0 0 0 0 0 0 1 1 1 0 0 0 0 1 2 4 6 7 8 10 11 13 15 16 15 12 7 4 4 4 3 3 4 5 5 4 1 0 0 0 0 0 1
0 0 0 0 0 0 0 1 1 1 0 0 0 0 0 1 3 5 6 8 9 10 11 13 14 14 11 8 5 5 5 4 4 4 5 6 5 2 1 1 1 0 0 1
0 0 0 0 0 0 1 1 0 0 0 0 0 0 0 0 1 4 6 7 9 9 10 11 11 10 10 10 9 9 9 7 6 6 6 5 5 3 1 2 2 1 1 2
0 0 0 0 0 0 0 0 0 0 0 0 0 0 0 0 1 4 8 9 8 9 9 10 10 10 11 13 15 16 15 12 10 10 9 7 4 2 1 1 2 2 2 3
0 0 0 0 0 0 0 0 0 0 0 0 0 0 0 1 2 6 10 11 9 8 8 10 11 13 14 17 20 21 19 17 15 13 11 8 5 3 3 3 3 3 4 4
0 0 0 0 0 0 0 0 0 0 0 0 0 0 0 1 2 6 9 10 9 8 8 9 12 15 16 18 20 21 20 19 18 15 12 9 7 6 5 6 5 5 5 4
0 0 0 0 0 0 0 0 0 0 0 0 0 0 0 1 2 5 8 8 8 8 7 8 11 13 15 16 17 19 20 19 17 15 13 9 7 6 6 7 7 6 4 2
0 0 0 0 0 0 0 0 0 0 0 0 0 0 0 0 2 6 8 6 6 6 4 7 10 12 14 15 16 19 20 18 16 15 13 10 7 6 7 8 8 6 3 1
0 0 0 0 0 0 0 0 0 0 0 0 0 0 0 0 3 7 8 6 6 6 5 8 12 14 15 16 18 20 19 18 18 17 15 13 11 10 9 9 7 5 3 2
0 0 0 0 0 0 0 0 0 0 0 0 0 0 0 1 4 8 9 9 10 11 12 13 15 18 18 20 22 22 20 19 20 19 17 15 13 13 11 9 7 5 4 3
0 0 0 0 0 0 0 0 0 0 0 0 0 0 0 2 6 10 12 14 16 16 17 17 16 18 21 26 28 26 22 20 21 21 18 15 13 12 10 8 7 5 4 4
0 0 0 0 0 0 0 0 0 0 0 0 0 0 0 2 8 12 15 19 20 19 18 17 15 17 22 29 30 27 23 22 23 24 22 18 16 14 10 8 8 7 7 6
0 0 0 0 0 0 0 0 0 0 0 0 0 0 0 3 9 15 18 22 23 21 19 19 17 18 22 27 27 26 25 25 27 28 25 22 20 18 13 10 9 10 11 10
0 0 0 0 0 0 0 0 0 0 0 0 0 0 1 4 9 14 17 21 22 21 22 22 20 19 22 24 25 26 26 27 28 28 26 24 23 21 16 11 10 11 12 12
0 0 0 0 0 0 0 0 0 0 0 0 0 1 3 6 9 12 14 17 19 19 21 21 20 19 19 21 25 28 28 26 25 25 24 24 24 21 17 13 10 10 11 12
0 0 0 0 0 0 0 0 0 0 0 0 1 4 7 8 9 9 10 14 16 17 19 19 21 20 18 18 23 28 28 25 22 20 20 22 22 20 18 15 12 9 9 10
0 0 0 0 0 0 0 0 0 0 0 0 2 6 10 10 8 7 10 14 17 19 21 22 23 22 17 14 18 24 26 24 20 17 18 20 21 19 17 15 11 8 7 6
0 0 0 0 0 0 0 0 0 0 0 1 3 7 11 10 7 8 14 20 23 26 28 30 30 24 16 12 14 18 22 21 19 17 17 18 19 18 16 13 10 8 6 5
0 0 0 0 0 0 0 0 0 0 0 1 4 8 10 9 9 13 20 26 30 33 37 39 36 27 18 14 14 16 19 19 18 18 17 16 16 16 16 14 10 6 4 4
0 0 0 1 1 0 0 0 1 1 1 1 4 7 9 10 13 18 25 30 33 36 40 42 37 29 21 18 16 16 17 18 18 17 16 15 14 14 14 13 8 3 2 3
0 0 1 2 1 1 1 2 4 5 5 4 5 7 10 13 15 19 25 29 32 34 37 38 33 26 21 18 17 15 15 16 16 15 14 13 13 13 12 10 6 2 1 2
0 0 1 1 1 1 2 4 5 9 10 9 9 10 13 16 15 16 22 26 29 30 32 32 26 20 16 15 15 13 13 13 14 13 13 13 13 12 10 7 5 2 1 2
0 0 0 1 0 1 4 5 6 10 13 13 12 13 15 17 14 15 20 24 27 29 30 27 20 14 12 13 13 12 11 11 12 13 13 13 13 12 9 6 4 2 1 1

GEFSCGP_con_prob3kmehi_234.txt.gz
EHI
0 0 0 0 0 0 0 0 0 0 0 0 0 1 2 3 3 2 2 4 5 6 7 10 11 10 8 6 9 12 13 12 8 5 3 1 0 0 0 0 1 2 2 3
0 0 0 0 0 0 0 0 0 0 0 0 0 1 2 3 4 4 4 5 7 8 10 12 13 13 12 11 12 13 14 13 10 6 3 1 0 0 0 1 1 1 1 2
0 0 0 0 0 0 0 0 0 0 0 0 0 1 2 3 4 6 6 6 7 10 12 13 15 15 15 14 13 13 15 16 14 9 5 3 2 1 1 1 1 1 1 2
0 0 0 0 0 0 0 0 0 0 0 0 0 0 2 4 5 7 8 8 8 10 12 13 14 15 15 14 12 13 16 19 18 14 11 9 6 3 2 2 2 2 2 3
0 0 0 0 0 0 0 0 0 0 0 0 0 0 1 3 4 6 10 11 10 10 10 11 13 14 14 13 11 14 21 25 23 19 17 15 10 6 5 4 4 4 4 5
0 0 0 0 0 0 0 0 0 0 0 0 0 0 0 1 2 5 10 13 12 10 8 9 13 16 17 13 12 17 27 31 27 22 19 18 16 14 12 9 7 7 8 9
0 0 0 0 0 0 0 0 0 0 0 0 0 0 0 1 1 3 10 15 14 11 9 11 17 22 22 18 19 26 34 35 30 25 21 20 21 21 19 14 10 9 11 11
0 0 0 0 0 0 0 0 0 0 0 0 0 0 0 1 2 4 9 15 14 12 12 14 19 24 25 25 28 33 37 37 32 28 24 22 21 20 20 18 13 12 12 12
0 0 0 0 0 0 0 0 0 0 0 0 0 0 0 1 3 5 10 15 16 14 15 19 20 22 25 28 32 34 35 34 32 28 25 23 22 19 19 20 17 15 14 14
0 0 0 0 0 0 0 0 0 0 0 0 0 0 1 3 5 7 10 16 19 18 19 22 23 23 24 27 30 31 31 31 31 30 27 25 25 24 23 22 19 17 16 15
0 0 0 0 0 0 0 0 0 0 0 0 0 0 1 3 5 7 11 17 21 22 22 24 26 26 26 27 29 30 29 30 32 33 31 28 27 27 26 23 18 16 15 14
0 0 0 0 0 0 0 0 0 0 0 0 0 0 0 1 3 7 12 17 22 24 26 28 31 32 32 31 31 30 28 30 34 36 35 31 28 27 24 21 17 15 14 13
0 0 0 0 0 0 0 0 0 0 0 0 0 0 0 1 4 8 13 19 25 29 33 36 38 39 38 37 37 34 32 33 37 39 37 33 28 25 22 20 17 15 14 13
0 0 0 0 0 0 0 0 0 0 0 0 0 0 1 2 5 11 16 21 27 35 40 43 44 44 42 42 42 40 37 36 38 39 37 32 27 24 23 21 20 18 17 16
0 0 0 0 0 0 0 0 0 0 0 0 0 0 1 3 8 14 19 23 28 38 44 46 46 43 40 42 44 42 38 38 38 37 35 30 27 26 25 23 21 21 21 20
0 0 0 0 0 0 0 0 0 0 0 0 0 1 3 6 10 17 22 24 29 39 45 46 44 42 41 43 45 43 40 41 40 37 33 30 27 26 25 23 22 23 23 23
0 0 0 0 0 0 0 0 0 0 1 1 1 2 4 8 12 17 22 26 30 38 43 45 44 44 46 45 44 44 43 42 40 37 34 30 28 26 24 23 23 23 22 21
0 0 0 0 0 0 0 0 0 0 1 2 2 3 4 7 9 14 21 27 31 36 41 44 45 47 49 46 43 44 44 41 38 36 33 29 27 25 23 22 23 23 22 20
0 0 0 0 0 0 0 0 0 0 1 1 1 2 5 5 5 9 19 27 32 35 40 44 46 48 49 46 43 43 44 41 36 33 30 27 26 25 23 22 22 22 22 22
0 0 0 0 0 0 0 0 0 0 0 0 1 3 5 5 6 12 21 29 33 36 41 46 48 51 52 49 46 46 45 41 36 31 28 25 23 23 23 23 21 21 22 22
0 0 0 0 0 0 0 0 0 1 2 2 3 3 4 7 14 22 29 34 38 40 45 49 50 54 55 51 49 50 48 43 38 33 29 25 22 21 22 22 21 21 21 20
0 0 0 0 0 0 1 2 3 4 6 6 5 4 5 11 20 28 34 40 43 44 47 47 49 53 55 52 50 51 49 42 37 33 30 27 23 21 22 22 21 21 21 20
0 0 0 0 2 3 5 7 9 10 10 9 7 7 11 17 24 30 36 41 44 44 44 42 43 49 52 51 50 49 46 38 32 31 31 29 25 23 23 23 21 21 20 19
0 0 1 2 6 9 10 11 12 13 13 12 8 9 14 21 26 30 36 41 44 42 41 40 40 45 49 49 47 46 41 33 28 29 30 29 26 23 23 22 20 19 18 17
0 1 3 5 10 12 12 12 13 15 16 16 13 13 19 26 30 32 37 43 45 43 41 40 41 44 48 48 45 40 35 29 27 28 29 27 24 23 21 19 17 16 14 13
1 3 5 7 11 12 12 12 14 17 19 20 18 18 24 31 34 35 38 45 47 44 41 39 40 45 49 48 43 36 30 26 25 27 28 25 23 22 20 16 14 12 10 9

GEFSCGP_con_prob3kmehi_240.txt.gz
EHI
0 0 0 0 0 0 0 0 0 0 0 1 3 4 4 4 5 7 10 15 21 27 30 30 27 27 33 43 46 40 34 31 28 24 21 19 19 19 18 21 27 31 28 26
0 0 0 0 0 0 0 0 0 0 0 1 2 2 3 4 5 7 11 16 23 29 34 35 33 32 38 48 51 47 44 39 34 28 23 23 23 22 21 24 30 32 29 26
0 0 0 0 0 0 0 0 0 0 0 0 1 1 3 4 5 6 10 15 22 30 38 44 44 42 45 53 56 54 53 50 43 34 27 27 29 27 24 27 32 34 30 28
0 0 0 0 0 0 0 0 0 0 0 0 1 2 4 6 6 7 11 14 19 29 41 50 53 51 51 55 57 59 60 58 51 43 34 30 31 29 25 27 32 34 32 30
0 0 0 0 0 0 0 0 0 0 0 1 1 2 5 7 7 8 12 15 18 28 41 51 56 57 53 53 59 64 66 64 59 51 42 35 32 29 25 25 29 31 32 31
0 0 0 0 0 0 0 0 0 0 0 0 0 2 4 6 6 8 12 15 19 27 40 49 56 61 58 55 61 67 70 68 64 57 49 41 35 31 28 27 27 28 28 27
0 0 0 0 0 0 0 0 0 0 0 0 0 1 4 5 6 7 11 15 19 28 40 49 57 64 65 65 68 72 72 69 65 60 54 47 41 35 32 30 27 25 23 23
0 0 0 0 0 0 0 0 0 0 0 0 0 1 3 5 5 7 10 14 18 27 38 47 56 66 72 74 75 75 73 68 65 61 54 49 44 38 34 32 29 26 23 22
0 0 0 0 0 0 0 0 0 0 0 0 0 1 3 4 5 6 9 12 18 27 37 45 55 66 74 77 77 75 72 67 63 59 53 50 47 41 37 36 34 31 27 24
0 0 0 0 0 0 0 0 0 0 0 0 0 1 2 5 6 6 8 12 19 27 36 45 54 64 72 75 75 74 72 66 61 57 54 53 51 46 40 38 37 33 29 26
0 0 0 0 0 0 0 0 0 0 0 0 0 0 2 4 6 7 9 13 21 28 35 44 52 61 69 73 74 75 71 66 61 57 55 55 53 49 43 39 35 31 27 24
0 0 0 0 0 0 0 0 0 0 0 0 0 1 2 3 6 9 13 18 25 32 38 46 55 65 72 75 76 75 71 65 61 59 58 57 55 52 46 38 33 29 26 24
0 0 0 0 0 0 0 0 0 0 0 0 0 1 2 4 7 12 17 24 33 42 48 55 65 76 82 82 79 75 69 63 60 61 60 59 57 54 47 38 34 33 31 29
0 0 0 0 0 0 0 0 0 0 0 0 0 1 3 6 9 15 21 27 38 50 59 64 72 82 88 87 81 73 65 61 60 61 61 61 59 54 46 39 37 37 36 34
0 0 0 0 0 0 0 0 0 0 0 0 0 1 4 7 13 20 27 32 40 53 63 68 72 79 85 85 80 73 64 60 60 60 61 61 57 50 44 39 38 37 37 36
0 0 0 0 0 0 0 0 0 0 0 0 0 2 6 11 17 26 33 37 44 54 63 69 71 75 78 78 76 71 65 62 61 58 57 56 52 45 40 38 37 37 37 36
1 1 0 0 0 0 0 0 0 0 0 1 1 3 8 15 21 29 35 39 45 53 61 67 69 70 72 72 71 69 65 64 62 57 54 51 48 43 38 36 36 37 37 36
3 3 1 0 0 0 0 0 0 0 1 2 3 5 9 16 23 28 32 37 43 50 57 62 63 64 67 69 70 67 64 63 61 56 51 48 46 43 40 39 38 38 38 37
2 3 1 0 0 0 0 0 0 1 2 3 4 6 10 16 21 25 29 34 42 50 56 58 57 61 67 71 71 67 63 62 60 54 50 48 45 42 41 42 42 41 40 39
1 2 1 0 0 0 0 0 0 2 3 4 4 7 12 15 18 23 29 36 45 54 59 59 60 64 70 73 73 69 64 62 59 54 50 48 44 41 41 43 44 45 42 40
0 0 0 0 0 0 0 0 3 7 9 8 6 8 12 14 17 24 32 41 50 56 60 63 67 69 72 74 73 70 68 65 61 56 52 49 44 40 39 43 47 47 44 40
0 0 0 1 2 3 4 6 11 18 19 14 10 12 16 17 22 30 38 45 52 55 58 63 69 71 72 71 70 69 69 67 62 59 57 53 46 41 40 44 46 46 42 37
1 2 2 3 5 8 10 13 18 23 21 16 14 18 22 24 30 38 44 50 53 54 56 59 62 67 69 67 65 66 67 66 62 60 61 56 48 46 46 44 41 40 37 33
4 5 5 6 9 11 12 14 16 17 14 12 14 19 24 27 33 42 50 54 55 55 56 55 57 62 65 63 61 62 63 63 60 57 56 51 46 47 48 43 36 32 29 27
7 8 7 9 12 12 12 14 15 14 12 12 15 20 24 28 33 41 51 55 54 54 54 53 55 58 60 60 59 59 61 60 55 51 47 43 39 38 39 36 28 23 21 19
9 10 9 12 16 15 14 16 18 17 16 17 19 23 26 30 33 40 49 53 52 52 52 53 54 56 57 58 58 59 61 59 51 45 42 38 33 31 31 29 22 17 15 14

GEFSCGP_con_prob3kmehi_246.txt.gz
EHI
0 0 0 0 0 0 1 1 1 0 1 2 2 1 1 4 10 13 16 19 18 15 17 21 22 19 16 15 17 18 16 13 10 6 6 6 4 3 3 4 4 5 5 4
0 0 0 0 0 0 0 0 0 1 1 1 1 0 0 2 7 12 16 19 19 18 18 21 23 24 24 23 23 21 18 16 13 10 9 8 5 3 3 4 5 7 7 6
0 0 0 0 0 0 0 0 1 2 2 1 1 0 0 1 4 9 14 18 21 21 20 20 24 28 31 33 31 27 22 19 17 15 14 13 9 6 4 4 6 9 10 9
0 0 0 0 0 0 0 0 1 2 2 2 2 1 1 0 3 8 14 18 23 24 22 20 23 28 33 37 36 31 26 23 21 20 20 19 15 10 5 5 7 10 11 11
0 0 0 0 0 0 0 0 1 1 2 2 2 2 2 2 4 8 15 20 24 28 26 22 23 28 33 37 37 35 31 27 26 26 25 23 19 14 9 6 7 9 11 11
0 0 0 0 0 0 0 0 0 0 1 1 1 1 2 2 4 10 16 21 25 30 29 24 24 30 36 40 39 37 36 33 30 29 27 23 20 17 12 7 7 9 10 10
0 0 0 0 0 0 0 1 0 0 0 0 0 0 1 1 4 11 18 21 25 29 30 27 27 34 40 44 42 40 41 39 34 30 26 23 21 18 13 8 8 10 10 10
0 0 0 0 0 0 0 0 0 0 0 0 0 0 0 1 4 12 20 24 25 27 28 28 31 37 43 44 43 44 46 46 41 35 28 22 20 17 13 10 11 11 10 9
0 0 0 0 0 0 0 0 0 0 0 0 0 0 0 2 7 15 22 25 24 24 26 29 33 37 42 44 44 45 48 48 45 40 32 24 20 18 15 14 13 10 8 6
0 0 0 0 0 0 0 0 0 0 0 0 0 0 1 4 11 18 23 25 25 25 26 30 33 36 40 43 43 44 46 47 46 42 35 28 24 22 20 18 14 11 8 6
0 0 0 0 0 0 0 0 0 0 0 0 0 0 1 4 11 19 24 27 29 30 30 32 33 36 41 44 44 45 46 46 47 44 39 34 30 28 24 19 16 13 11 10
0 0 0 0 0 0 0 0 0 0 0 0 0 0 1 4 10 19 27 30 32 33 33 33 34 38 45 47 47 47 46 45 46 46 43 39 36 33 27 22 18 15 14 13
0 0 0 0 0 0 0 0 0 0 0 0 0 0 1 5 12 21 29 32 34 35 33 32 34 41 49 50 48 47 45 43 44 46 46 44 40 36 32 27 22 19 17 16
0 0 0 0 0 0 0 0 0 0 0 0 0 0 2 7 14 22 29 33 36 35 32 31 35 43 51 51 48 46 44 43 44 46 48 45 40 36 34 31 27 23 20 19
0 0 0 0 0 0 0 0 0 0 0 0 0 1 2 7 15 23 30 32 32 31 32 34 38 44 48 48 47 46 44 43 44 46 47 43 39 36 34 32 30 26 23 21
0 0 0 0 0 0 0 0 0 0 0 0 1 2 5 10 18 25 29 30 27 28 34 38 40 44 44 44 45 46 46 45 47 47 45 41 36 34 33 31 31 29 26 25
0 0 0 0 0 0 0 0 0 0 0 1 2 4 7 13 19 24 29 30 28 30 37 41 42 43 44 43 44 45 46 48 48 47 43 39 35 32 30 28 28 29 29 28
0 0 0 0 0 0 0 0 0 0 1 1 3 6 10 14 17 21 26 30 32 33 37 41 42 43 44 44 45 46 47 48 46 44 41 38 35 31 28 26 25 26 26 26
0 0 0 0 0 0 0 0 1 1 2 3 5 8 12 14 16 18 23 28 32 35 38 40 42 44 44 44 46 49 49 46 43 41 38 35 33 30 27 26 25 24 24 23
0 0 0 0 0 0 0 1 2 3 3 5 8 11 13 15 16 17 20 26 33 37 38 38 41 44 44 42 44 47 47 43 39 37 34 31 29 28 27 27 26 25 25 24
0 0 0 0 0 0 0 1 2 3 3 6 10 13 14 15 16 18 23 30 37 41 39 37 40 43 43 42 44 45 43 39 35 34 31 28 26 26 27 26 26 26 26 25
0 0 0 0 0 0 0 1 2 3 5 7 12 16 17 19 21 24 29 35 40 43 42 41 42 43 43 45 47 45 40 36 35 34 32 29 25 25 26 25 25 25 24 23
1 1 1 1 1 1 1 2 4 6 8 12 17 20 23 26 28 30 33 37 41 43 44 46 46 45 44 46 48 44 40 39 39 38 34 29 26 24 24 24 23 22 21 20
2 2 2 3 3 3 3 4 7 10 13 18 22 26 30 32 33 33 34 37 41 43 45 47 46 44 43 45 45 43 41 42 43 40 34 29 25 21 20 20 19 19 19 18
3 3 3 4 5 6 6 7 10 14 17 22 27 32 35 37 37 36 35 36 39 42 43 44 42 41 40 41 42 41 40 40 41 39 34 30 27 21 16 14 14 13 14 15
3 3 4 5 6 6 7 9 13 17 20 24 30 35 38 38 39 38 36 35 37 40 42 41 39 38 37 38 39 39 38 37 37 37 34 32 29 23 16 12 10 9 10 11